Temperature
22 21 20 21 27 29 28 27 28 27 27 26 25 25 25 24 24 23 20 19 19 19 18 18 18 18 18 18 18 18 18 18 18 18 18 18 18 18 18 18 18 18 18 18 18 18 18 18 18
21 20 21 25 29 28 27 28 27 27 26 25 25 25 25 23 21 20 20 19 19 19 18 18 18 18 18 18 18 18 18 18 18 18 18 18 18 18 18 18 18 18 18 18 18 18 18 18 18
21 21 25 30 29 28 28 28 27 27 25 25 25 24 24 22 21 20 19 19 19 19 18 18 18 18 18 18 18 18 18 18 18 18 18 18 18 18 18 18 18 18 18 18 18 18 18 18 18
21 24 28 30 29 29 28 28 27 27 26 25 25 24 22 20 20 20 19 19 19 19 19 18 18 18 18 18 18 18 18 18 18 18 18 18 18 18 18 18 18 18 18 18 18 18 18 18 18
23 28 30 30 29 29 29 28 27 28 27 25 25 24 22 20 20 19 19 19 19 19 19 18 18 18 18 18 18 18 18 18 18 18 18 18 18 18 18 18 18 18 18 18 18 18 18 18 18
28 31 31 30 29 29 29 28 28 28 27 25 25 24 22 20 20 19 19 19 19 19 19 18 18 18 18 18 18 18 18 18 18 18 18 18 18 18 18 18 18 18 18 18 18 18 18 18 18
29 31 31 30 30 29 29 28 28 28 27 26 25 25 22 20 20 19 19 19 19 19 19 18 18 18 18 18 18 18 18 18 18 18 18 18 18 18 18 18 18 18 18 17 17 18 18 18 18
28 32 31 31 30 29 29 28 28 28 27 25 25 25 23 21 20 20 19 19 19 19 19 19 18 18 18 18 18 18 18 18 18 18 18 18 18 18 18 18 18 18 18 17 17 18 18 18 18
28 32 31 31 31 30 29 29 27 27 26 25 25 24 23 21 20 20 20 19 19 19 19 19 19 18 18 18 18 18 18 18 18 18 18 18 17 17 17 17 18 18 18 17 18 18 18 18 18
30 32 31 32 32 31 30 29 28 27 27 26 24 23 22 21 20 21 21 20 20 19 19 18 18 18 18 18 18 17 17 17 17 17 17 17 17 17 17 17 18 18 17 17 18 18 18 17 17
32 32 32 32 31 30 30 29 28 29 28 27 25 23 22 21 21 21 21 21 20 19 19 18 18 18 18 18 18 17 17 17 17 17 17 17 17 17 17 17 17 17 17 17 17 17 17 17 17
32 32 31 31 30 30 30 29 29 29 28 27 25 23 22 22 22 22 21 21 20 19 19 19 18 18 18 18 18 18 18 17 17 17 17 17 17 17 17 17 17 17 17 17 17 17 17 17 17
32 32 31 31 30 30 29 29 29 28 27 26 24 23 23 23 22 22 21 20 20 19 19 19 18 18 18 18 18 18 18 18 18 17 17 17 17 17 17 17 17 17 17 17 17 17 17 17 17
32 31 31 31 30 30 30 30 29 28 26 25 24 24 23 23 22 22 21 20 20 19 19 19 18 18 18 18 18 18 18 18 17 17 17 17 17 17 17 17 17 17 17 17 17 17 17 17 17
31 32 31 31 31 30 30 30 30 28 27 26 25 24 24 23 22 22 21 20 20 20 19 19 19 18 18 18 18 18 18 18 18 17 17 17 17 17 17 17 17 17 17 17 17 17 17 17 17
32 32 32 31 31 30 30 30 30 28 27 27 26 25 24 23 23 22 21 21 20 20 19 19 19 19 18 18 18 18 18 18 18 17 17 18 18 17 17 17 17 17 17 17 17 17 17 17 17
32 32 32 31 31 31 31 31 30 28 28 27 26 25 24 23 23 22 21 21 20 20 19 19 19 19 18 18 18 18 18 18 18 18 18 18 18 18 17 17 17 17 17 17 17 18 17 17 17
32 32 32 32 32 31 31 31 30 29 28 28 26 26 24 24 23 22 21 21 20 20 20 19 19 19 19 18 18 18 18 18 18 18 18 18 18 18 18 17 17 17 17 17 17 17 17 17 17
32 32 32 32 32 31 31 31 31 29 28 28 27 26 25 24 24 23 22 21 20 20 20 19 19 19 19 18 18 18 18 18 18 18 18 18 18 18 18 17 17 17 17 17 17 17 17 17 17
32 31 32 32 31 31 31 31 31 30 29 28 27 26 26 25 24 23 22 21 21 20 20 20 20 19 19 19 19 18 18 18 18 18 18 18 18 18 18 18 17 17 17 17 17 17 17 17 17
31 31 32 31 31 31 31 31 31 31 29 28 27 27 26 25 24 23 22 21 21 20 20 20 19 19 19 19 18 18 18 18 18 18 18 18 18 18 18 18 18 17 17 17 17 17 17 17 17
31 32 31 31 31 31 31 31 31 31 30 29 28 27 26 26 25 24 22 22 21 21 20 20 20 20 20 19 19 18 18 18 18 18 18 18 18 18 18 18 18 18 17 17 17 17 17 17 17
31 31 31 31 31 31 31 31 32 31 30 30 29 27 26 26 25 24 23 22 22 21 20 20 20 20 20 19 19 19 19 18 18 18 18 18 18 18 18 18 18 18 17 17 17 17 17 17 17
31 30 30 31 31 30 31 30 31 32 31 31 30 28 26 26 25 24 23 22 21 21 20 20 20 20 20 19 19 19 19 18 18 18 18 18 18 18 18 18 18 18 17 17 17 18 17 17 17
30 30 29 29 29 30 31 30 31 31 31 31 30 28 27 26 25 24 23 22 22 21 21 20 20 20 20 19 19 19 19 18 18 18 18 18 18 18 18 18 18 18 18 18 18 17 17 17 17
30 30 29 28 29 31 30 30 31 31 30 30 29 28 27 26 25 24 23 22 22 21 21 20 20 20 20 19 19 19 19 18 18 18 18 18 18 18 18 18 18 18 18 17 17 17 17 17 17
30 30 31 30 30 30 31 30 30 30 30 30 29 28 27 26 25 24 23 23 22 21 21 21 20 20 20 19 19 19 19 18 18 18 18 18 18 18 18 18 18 18 18 17 17 17 17 17 17
30 30 30 30 28 28 30 30 31 30 30 30 29 28 26 26 25 24 23 23 22 22 21 20 20 20 20 20 19 19 19 19 18 18 18 18 18 18 18 17 17 17 17 17 17 17 17 17 17
29 29 29 30 29 29 29 30 31 30 29 29 28 27 26 25 25 24 23 22 22 21 21 20 20 20 19 19 19 19 19 19 18 18 18 18 18 18 18 17 17 17 17 17 17 16 16 16 16
29 29 29 28 28 28 29 30 30 29 29 28 27 26 25 24 24 23 22 22 21 21 20 20 19 19 19 19 19 19 19 18 18 18 18 18 18 18 17 17 17 17 17 17 17 16 16 16 16
Wind_Speed
13 10 6 4 3 6 11 9 8 8 7 7 6 5 7 8 6 6 6 7 8 9 10 12 11 12 12 13 14 14 14 14 14 13 12 12 12 13 13 13 13 14 14 14 14 14 15 15 15
9 7 5 4 2 9 11 8 9 9 7 7 6 6 7 8 7 7 7 7 8 9 10 11 12 12 13 13 13 13 13 14 13 12 12 12 12 12 12 12 12 13 13 13 14 15 15 15 15
7 6 4 1 9 11 10 8 9 8 7 5 5 6 6 6 6 6 8 9 9 10 10 12 12 12 12 13 13 13 13 13 12 11 11 11 12 12 11 12 12 12 12 13 14 15 14 14 14
5 5 3 4 13 12 10 8 8 8 7 5 5 7 6 6 4 8 10 10 10 10 10 13 11 12 13 13 13 13 12 11 11 11 11 11 11 11 11 12 12 11 12 14 14 14 14 14 13
5 3 3 10 12 10 9 8 6 6 6 6 6 8 8 6 9 11 10 9 10 10 10 13 11 12 12 13 13 13 12 11 10 10 10 10 11 11 11 11 11 11 13 14 13 13 13 13 12
3 1 6 11 12 9 8 6 6 7 8 7 7 9 7 8 10 10 10 9 9 9 10 13 12 11 12 12 11 11 11 10 10 9 9 9 10 11 11 11 11 11 12 12 12 12 12 12 11
3 3 8 10 10 8 6 5 5 6 7 6 5 8 8 10 10 10 10 9 8 8 9 10 11 12 12 12 11 10 9 9 9 9 9 9 10 10 11 11 11 11 11 11 11 11 11 10 10
3 1 7 8 8 9 7 5 5 5 7 7 4 6 9 12 11 11 10 9 8 7 7 8 8 10 11 12 12 10 8 8 8 8 8 9 10 10 10 11 11 11 10 10 10 10 10 9 9
4 1 8 8 7 7 7 7 6 6 8 7 5 6 12 15 13 11 10 9 8 7 6 7 7 7 8 10 12 10 9 8 8 8 9 8 8 10 10 10 11 10 10 9 9 9 9 9 9
2 4 8 6 5 6 7 6 7 7 8 8 9 11 15 15 13 11 10 10 9 8 7 6 6 6 7 7 8 7 7 8 6 6 7 6 6 7 8 11 10 9 9 9 8 8 9 8 8
0 4 5 4 4 5 7 7 6 6 6 7 11 15 16 14 12 10 10 9 8 8 7 7 6 6 5 5 5 5 5 5 5 6 6 6 6 7 7 7 9 9 9 8 8 8 6 5 3
0 2 2 3 4 5 6 6 6 3 5 7 12 16 16 14 12 10 9 8 8 7 7 7 7 6 4 4 5 5 4 4 5 6 6 6 4 4 4 4 5 5 5 4 4 4 4 3 3
2 2 3 4 5 5 6 6 5 5 6 10 14 15 15 13 11 10 8 8 8 8 7 6 6 6 5 4 3 4 4 4 5 5 5 4 4 4 4 4 4 4 5 5 4 3 3 3 3
1 3 4 5 6 6 6 5 5 6 9 12 14 14 14 13 12 11 10 9 9 8 8 7 7 7 6 5 4 4 4 4 4 5 5 4 4 4 4 4 3 3 3 3 3 3 3 3 2
4 4 5 5 6 5 5 5 5 8 11 12 13 13 13 13 12 11 11 10 9 9 8 8 8 7 7 6 5 5 4 5 4 4 5 5 4 4 3 3 4 3 4 4 3 3 3 3 3
7 7 5 6 6 5 6 2 7 10 12 12 12 12 12 12 13 12 11 10 9 9 9 8 7 7 7 6 5 4 4 5 4 4 5 5 5 5 4 3 3 3 4 4 3 3 3 3 2
9 8 5 6 7 6 7 2 7 10 11 11 12 12 12 12 13 12 12 11 10 10 9 9 7 7 7 7 5 5 4 4 4 4 4 5 5 5 5 4 3 4 4 3 4 3 3 2 2
8 7 6 5 6 8 8 5 6 10 10 11 11 12 12 13 13 13 13 12 11 11 10 9 9 8 8 7 6 5 5 5 5 5 4 5 5 6 5 4 4 4 3 3 3 3 3 2 2
7 8 7 4 4 7 8 7 6 9 10 11 11 12 12 12 12 12 13 13 12 11 11 11 10 9 8 7 7 6 6 5 5 5 5 6 5 5 5 4 4 4 4 4 4 4 4 4 3
9 10 8 5 4 6 7 8 7 9 11 11 12 12 12 12 13 13 13 13 13 13 12 11 11 10 10 7 6 5 5 5 5 4 5 6 6 6 6 5 4 4 4 4 4 4 4 3 3
11 11 9 6 5 7 7 9 9 9 10 10 11 11 12 13 14 14 14 14 14 14 13 12 11 11 10 9 7 6 5 5 5 5 5 6 6 6 5 5 5 4 5 4 5 5 5 4 4
12 9 8 8 9 8 8 9 7 9 9 10 11 12 12 13 13 14 14 15 14 14 13 13 12 11 11 10 9 9 8 7 6 5 5 5 6 6 6 5 5 4 4 4 5 5 5 5 4
9 4 7 9 11 11 9 10 7 7 9 9 10 12 12 13 13 14 15 15 14 13 12 12 12 11 11 11 10 10 9 7 6 5 5 5 5 5 5 5 5 5 4 4 4 4 5 5 5
6 6 6 10 12 14 12 11 9 7 7 6 7 9 11 12 12 13 13 13 13 13 12 12 12 11 11 11 11 11 10 8 7 7 6 6 5 5 6 6 5 5 4 5 5 5 6 5 4
10 10 9 10 11 12 8 10 8 4 5 5 5 6 9 11 11 13 14 14 14 14 14 13 13 12 12 12 11 11 10 10 9 8 7 6 5 5 6 6 5 5 5 5 5 5 5 5 5
13 14 12 11 12 10 8 10 5 3 3 4 4 4 6 9 10 12 13 14 13 14 14 14 14 13 12 12 11 10 10 9 8 8 7 7 5 5 5 6 5 5 5 5 5 5 5 5 5
13 13 13 13 14 12 9 8 7 6 5 5 4 4 5 7 9 11 12 12 13 13 14 14 14 13 12 12 11 10 10 8 7 7 7 6 5 5 6 6 5 5 5 5 5 5 5 5 6
11 11 10 12 12 13 12 13 9 8 8 5 3 3 3 5 7 9 9 10 11 12 13 13 13 13 12 11 10 8 9 9 8 7 6 6 5 5 5 5 5 5 5 5 6 5 5 6 5
11 12 11 11 12 13 13 8 3 5 5 4 2 1 1 3 5 7 8 9 9 10 11 11 11 11 10 10 9 8 8 8 8 7 7 6 6 6 6 5 5 5 5 5 5 6 5 6 6
12 13 14 13 12 12 13 8 2 3 3 3 2 0 1 2 3 4 6 7 8 9 10 10 10 10 10 9 9 9 8 8 8 8 7 7 7 7 6 6 6 6 5 5 6 6 6 6 7
Wind_Direction
174 183 205 234 223 82 69 70 72 81 80 76 74 66 63 49 39 78 103 119 120 115 114 118 111 114 113 110 107 108 110 110 110 110 110 112 113 113 112 113 115 117 118 120 122 122 121 120 120
170 184 224 241 54 77 72 69 72 70 86 102 89 78 73 66 63 97 118 124 125 116 115 112 114 115 113 111 109 109 110 110 110 109 110 111 111 113 115 115 116 117 119 120 125 124 123 123 122
178 219 261 53 57 62 75 76 81 89 98 102 92 67 56 67 87 110 121 133 128 117 113 110 117 117 116 114 112 109 109 110 112 112 111 111 112 116 116 117 116 118 122 122 123 124 125 124 123
209 225 227 72 72 67 76 90 100 103 96 86 101 89 75 67 94 114 125 132 126 122 120 115 121 121 119 117 117 115 113 115 117 116 114 114 114 115 115 116 115 117 124 127 124 123 122 122 123
242 252 102 81 75 77 82 94 102 91 91 93 96 94 87 86 106 119 126 127 124 123 120 120 123 123 123 122 123 120 119 118 118 115 113 116 115 115 115 116 116 116 121 126 125 124 123 125 125
245 247 76 78 81 86 97 105 96 89 96 103 106 100 92 118 124 128 129 128 124 125 124 123 129 126 127 130 127 123 122 120 119 119 119 120 119 120 121 122 121 118 119 124 126 126 124 126 128
317 54 73 77 87 92 98 106 90 92 99 105 113 104 117 131 132 134 132 130 125 124 124 129 136 135 133 128 128 126 125 123 122 122 124 124 124 125 127 127 125 122 123 124 126 127 125 127 130
303 65 85 79 80 89 113 116 93 91 98 113 125 113 135 142 143 138 135 133 128 127 127 131 134 134 140 137 132 132 129 126 125 124 127 135 136 133 134 137 131 129 128 128 128 129 130 130 134
267 79 72 70 75 101 129 130 116 108 120 121 105 101 130 141 146 144 142 141 141 138 133 135 136 137 138 135 134 142 142 139 144 140 139 154 148 139 144 124 128 131 131 132 132 134 135 141 146
267 56 66 64 76 111 138 137 136 142 135 128 120 118 133 146 153 155 152 152 151 147 145 142 140 141 140 136 138 146 146 142 147 132 138 137 131 133 131 126 135 139 140 142 142 147 164 185 162
333 47 65 81 94 123 139 141 148 146 138 145 145 143 149 154 159 160 157 156 150 149 149 149 145 143 142 142 143 141 139 134 136 132 135 130 140 143 141 143 150 156 164 161 156 175 177 169 151
161 62 62 92 114 136 137 139 144 139 89 129 146 150 155 162 164 165 161 155 151 152 153 153 147 149 153 146 143 151 148 145 140 138 152 148 147 147 142 152 145 157 159 154 160 163 162 164 169
202 77 90 113 133 132 138 143 135 129 119 133 144 154 161 165 166 166 163 161 158 160 160 156 154 153 154 155 172 157 153 152 143 142 144 155 159 154 152 146 152 169 163 164 169 176 170 181 184
135 129 123 136 138 146 151 145 154 139 144 147 155 163 168 170 170 170 172 172 170 169 165 161 165 161 160 164 170 162 159 154 148 149 143 157 156 147 155 158 169 174 178 169 175 178 180 190 181
181 170 156 157 164 165 176 171 167 148 154 159 165 169 171 174 175 181 180 179 176 174 170 168 171 167 167 171 171 163 161 156 154 149 150 164 164 157 170 165 181 179 180 174 187 185 191 192 191
207 214 199 165 182 179 216 177 147 162 168 170 172 173 178 180 184 184 184 184 180 177 174 176 177 170 170 172 172 168 168 158 160 164 166 171 169 173 185 181 184 177 185 179 181 202 199 195 202
216 224 215 168 188 193 223 218 147 172 180 178 179 180 184 186 191 189 188 186 184 183 181 179 181 175 174 172 174 178 172 174 176 178 179 175 183 186 197 196 182 195 192 192 206 188 202 199 200
220 229 225 217 186 207 224 227 174 183 193 188 187 187 189 194 194 190 191 188 187 185 186 185 183 181 179 176 177 184 183 184 190 187 182 183 194 196 208 200 189 203 198 201 202 192 198 208 210
248 244 237 227 189 218 234 237 211 192 200 200 196 195 196 200 193 190 191 191 189 189 189 190 192 184 186 187 189 189 189 192 190 187 184 191 201 200 211 220 193 210 210 212 207 202 195 199 192
232 238 236 218 201 233 247 247 229 202 208 208 204 201 201 200 194 191 194 194 194 193 194 193 195 192 194 190 194 196 196 195 193 197 184 196 201 209 208 218 218 209 209 210 209 210 217 215 209
228 237 236 232 212 224 250 246 223 210 210 213 214 208 203 201 197 192 194 197 197 196 196 197 196 194 197 192 192 192 191 206 194 195 195 200 203 208 221 217 222 215 217 210 212 215 219 221 223
230 230 238 235 236 237 238 261 223 210 207 213 216 213 208 204 199 194 194 197 199 199 196 196 194 195 195 194 197 198 201 204 200 197 191 193 201 209 209 213 216 220 223 217 226 214 224 225 230
237 227 233 240 247 255 236 258 244 203 220 218 215 214 211 206 202 198 196 196 197 195 194 193 192 195 194 196 196 201 206 205 199 198 189 201 200 208 211 208 211 216 224 221 228 218 225 227 236
201 205 220 238 247 247 243 250 253 219 227 227 212 211 210 206 203 201 196 192 192 192 193 190 188 192 194 198 200 204 205 207 205 204 198 203 199 199 203 205 208 215 220 217 218 222 220 230 237
204 219 227 232 232 242 226 242 249 232 232 239 234 210 204 202 200 197 195 192 192 192 191 189 187 190 193 198 202 203 206 208 210 211 209 213 206 198 197 205 205 210 215 219 218 217 228 226 228
215 228 236 246 249 242 213 237 234 221 231 237 230 210 196 196 196 194 193 192 192 192 192 191 188 191 192 198 202 204 206 212 212 211 215 211 217 213 197 202 206 212 218 222 218 224 222 225 232
219 228 244 256 263 264 241 233 230 215 220 220 211 194 193 196 194 192 191 192 191 193 193 193 189 191 192 195 198 202 205 210 213 208 215 216 213 211 204 206 210 214 217 224 225 228 228 226 232
236 230 231 241 249 253 248 243 238 216 219 210 205 194 194 195 193 192 191 192 193 193 191 191 190 192 192 192 195 196 199 200 206 212 214 216 213 215 211 212 217 219 219 221 229 230 227 232 235
204 217 230 240 248 254 257 248 235 213 212 214 208 193 184 188 186 187 189 189 188 188 186 184 186 187 189 191 193 197 197 199 202 206 208 210 211 209 210 213 217 220 220 220 225 237 232 233 237
225 225 224 234 240 247 263 260 132 183 199 214 228 144 110 140 161 171 175 176 177 179 181 181 184 186 187 189 192 192 193 199 203 205 206 208 211 213 211 212 214 220 219 219 224 234 236 238 240
Height
1493 1493 1494 1496 1489 1485 1493 1493 1490 1493 1495 1499 1501 1501 1502 1504 1507 1516 1518 1517 1518 1519 1519 1519 1519 1519 1520 1520 1521 1522 1523 1525 1526 1527 1528 1530 1531 1532 1533 1534 1535 1536 1538 1539 1540 1542 1543 1545 1547
1495 1495 1496 1493 1483 1493 1498 1492 1494 1496 1500 1502 1503 1504 1504 1509 1513 1516 1517 1518 1520 1521 1522 1522 1521 1522 1522 1523 1524 1525 1526 1527 1528 1530 1531 1532 1533 1534 1535 1536 1537 1538 1539 1540 1541 1543 1545 1547 1549
1495 1496 1496 1485 1486 1494 1498 1494 1496 1499 1502 1503 1505 1506 1509 1513 1516 1517 1518 1519 1521 1523 1524 1523 1523 1524 1525 1526 1527 1528 1528 1529 1531 1532 1533 1534 1535 1536 1537 1538 1539 1539 1540 1542 1543 1545 1547 1549 1551
1497 1497 1492 1485 1491 1492 1492 1495 1498 1500 1502 1504 1505 1508 1513 1517 1518 1519 1519 1521 1523 1525 1526 1525 1526 1526 1527 1528 1529 1530 1531 1532 1533 1534 1535 1535 1536 1537 1538 1539 1540 1539 1539 1542 1545 1547 1549 1551 1552
1498 1492 1485 1487 1491 1492 1493 1497 1499 1499 1502 1505 1507 1510 1515 1519 1519 1520 1521 1523 1525 1527 1528 1528 1527 1528 1529 1530 1531 1532 1532 1533 1535 1535 1536 1537 1538 1539 1540 1541 1541 1541 1541 1544 1548 1550 1551 1553 1554
1495 1486 1486 1492 1494 1493 1495 1498 1499 1501 1504 1507 1508 1511 1518 1521 1521 1523 1524 1525 1527 1528 1530 1529 1529 1530 1531 1532 1533 1533 1534 1535 1536 1537 1538 1539 1539 1541 1542 1543 1544 1544 1545 1548 1550 1552 1553 1555 1557
1493 1484 1487 1489 1493 1494 1496 1499 1499 1501 1504 1508 1510 1512 1518 1522 1523 1524 1526 1527 1529 1530 1531 1531 1532 1532 1532 1533 1534 1535 1536 1537 1538 1538 1539 1540 1541 1542 1543 1545 1546 1547 1549 1551 1552 1554 1555 1557 1558
1494 1485 1485 1487 1491 1495 1497 1500 1502 1503 1506 1510 1511 1512 1517 1522 1524 1526 1527 1529 1530 1531 1532 1532 1534 1535 1535 1535 1536 1536 1537 1538 1539 1539 1540 1540 1542 1543 1545 1547 1548 1549 1551 1553 1554 1556 1557 1559 1560
1495 1486 1488 1488 1490 1494 1497 1499 1504 1506 1508 1511 1512 1514 1518 1521 1524 1526 1528 1530 1531 1532 1533 1534 1535 1536 1537 1538 1537 1537 1538 1538 1539 1540 1540 1541 1543 1545 1547 1549 1550 1552 1553 1555 1556 1558 1559 1560 1562
1491 1486 1488 1488 1489 1491 1497 1499 1503 1505 1508 1511 1514 1517 1519 1522 1525 1527 1528 1530 1532 1533 1534 1534 1535 1536 1537 1538 1539 1539 1540 1540 1541 1541 1541 1542 1543 1545 1548 1549 1551 1553 1555 1556 1558 1559 1561 1562 1564
1489 1487 1487 1489 1491 1493 1496 1499 1502 1502 1504 1509 1513 1517 1520 1523 1525 1527 1529 1531 1532 1533 1534 1535 1536 1537 1538 1539 1540 1540 1541 1541 1541 1541 1542 1543 1545 1547 1550 1551 1553 1554 1556 1558 1559 1561 1563 1564 1565
1490 1489 1490 1491 1494 1495 1496 1499 1502 1503 1505 1509 1513 1516 1520 1523 1525 1527 1529 1531 1533 1534 1535 1536 1536 1537 1538 1539 1540 1541 1542 1542 1543 1542 1543 1545 1547 1549 1551 1552 1554 1556 1558 1559 1561 1562 1563 1564 1565
1490 1490 1492 1493 1494 1496 1498 1499 1502 1505 1508 1511 1514 1517 1520 1523 1526 1528 1530 1531 1533 1534 1535 1536 1536 1537 1538 1538 1540 1542 1542 1544 1544 1544 1545 1546 1548 1550 1551 1552 1554 1556 1558 1559 1560 1562 1562 1564 1564
1489 1491 1492 1493 1494 1497 1497 1500 1502 1505 1509 1512 1515 1517 1520 1523 1525 1527 1529 1531 1532 1534 1535 1536 1536 1537 1538 1539 1540 1541 1543 1543 1545 1546 1546 1547 1549 1550 1552 1553 1555 1557 1558 1560 1560 1562 1562 1563 1564
1490 1490 1491 1493 1494 1495 1497 1498 1500 1505 1508 1511 1514 1517 1519 1522 1524 1526 1528 1530 1532 1533 1534 1535 1536 1537 1538 1539 1541 1542 1543 1545 1546 1547 1547 1548 1549 1550 1552 1554 1555 1557 1558 1559 1560 1561 1562 1562 1563
1487 1487 1490 1491 1492 1495 1497 1498 1498 1503 1506 1509 1512 1516 1519 1521 1523 1525 1528 1529 1531 1532 1534 1535 1537 1538 1538 1539 1541 1543 1544 1545 1546 1547 1548 1548 1550 1551 1552 1554 1555 1556 1558 1558 1559 1560 1561 1562 1563
1485 1488 1487 1489 1490 1492 1493 1494 1496 1501 1504 1506 1510 1513 1517 1519 1522 1524 1526 1528 1530 1531 1533 1534 1536 1537 1538 1539 1540 1542 1543 1544 1545 1547 1548 1548 1549 1551 1552 1553 1554 1555 1557 1558 1559 1560 1560 1561 1561
1487 1485 1486 1488 1487 1489 1491 1490 1493 1499 1501 1503 1507 1510 1514 1516 1519 1522 1524 1527 1528 1530 1531 1533 1535 1536 1538 1539 1540 1541 1542 1544 1545 1546 1547 1548 1549 1550 1551 1553 1553 1555 1556 1556 1557 1557 1558 1559 1560
1480 1482 1485 1483 1483 1487 1488 1488 1489 1495 1498 1500 1504 1507 1510 1513 1517 1520 1522 1525 1527 1528 1530 1531 1534 1535 1536 1538 1540 1541 1542 1543 1545 1546 1546 1547 1548 1549 1550 1552 1552 1553 1554 1555 1555 1556 1557 1557 1558
1482 1485 1484 1483 1484 1487 1486 1486 1485 1490 1494 1497 1500 1503 1506 1510 1513 1516 1519 1522 1524 1526 1527 1529 1531 1533 1535 1537 1538 1540 1542 1543 1544 1545 1545 1546 1547 1548 1549 1549 1551 1551 1552 1553 1553 1554 1555 1556 1557
1482 1483 1482 1484 1484 1484 1486 1487 1483 1485 1490 1494 1497 1499 1502 1505 1508 1512 1515 1518 1521 1523 1525 1527 1529 1531 1533 1535 1537 1539 1540 1541 1543 1543 1544 1545 1546 1546 1547 1548 1549 1549 1551 1551 1551 1552 1553 1554 1555
1483 1477 1480 1483 1487 1485 1486 1492 1481 1479 1484 1489 1492 1495 1497 1501 1504 1508 1511 1514 1517 1520 1522 1524 1526 1528 1530 1532 1534 1536 1538 1540 1541 1542 1543 1543 1544 1545 1546 1546 1547 1548 1549 1549 1550 1551 1551 1552 1553
1476 1476 1480 1481 1483 1485 1483 1489 1480 1475 1481 1482 1486 1490 1493 1497 1500 1503 1507 1510 1514 1517 1519 1521 1523 1525 1527 1529 1531 1533 1535 1537 1539 1540 1541 1541 1542 1543 1544 1544 1545 1545 1547 1547 1547 1548 1549 1549 1551
1478 1480 1482 1481 1480 1493 1484 1487 1484 1473 1476 1476 1480 1485 1489 1493 1496 1500 1504 1507 1510 1513 1516 1518 1519 1521 1524 1526 1528 1530 1532 1534 1536 1537 1538 1539 1540 1541 1541 1542 1542 1543 1544 1544 1545 1545 1546 1547 1547
1478 1484 1494 1497 1493 1488 1476 1483 1478 1469 1471 1474 1477 1480 1485 1489 1492 1495 1499 1502 1505 1508 1510 1513 1515 1518 1520 1523 1525 1527 1529 1531 1532 1534 1536 1537 1538 1538 1538 1540 1540 1541 1541 1542 1542 1542 1543 1544 1544
1474 1476 1492 1501 1493 1480 1479 1480 1470 1467 1471 1473 1476 1478 1481 1484 1488 1491 1494 1498 1501 1504 1507 1509 1512 1514 1517 1519 1521 1524 1525 1528 1530 1531 1533 1534 1535 1536 1536 1536 1537 1538 1538 1539 1539 1540 1540 1541 1541
1473 1473 1468 1478 1480 1483 1474 1470 1467 1467 1469 1472 1474 1477 1479 1481 1484 1487 1490 1494 1497 1500 1503 1506 1508 1510 1513 1515 1518 1520 1522 1524 1526 1528 1529 1531 1531 1533 1533 1534 1534 1535 1535 1536 1537 1538 1537 1538 1539
1466 1467 1472 1478 1491 1491 1479 1474 1468 1466 1466 1468 1471 1474 1477 1479 1482 1485 1488 1491 1494 1497 1500 1503 1505 1507 1510 1512 1515 1517 1519 1521 1523 1525 1526 1527 1528 1529 1530 1531 1532 1532 1533 1533 1534 1535 1535 1535 1536
1470 1471 1471 1471 1472 1484 1485 1472 1455 1460 1464 1467 1470 1473 1476 1478 1480 1482 1485 1488 1491 1494 1497 1499 1501 1504 1507 1509 1511 1514 1516 1518 1520 1521 1522 1524 1525 1526 1526 1527 1528 1529 1529 1530 1530 1532 1532 1532 1533
1461 1463 1467 1476 1478 1475 1475 1469 1457 1460 1463 1467 1470 1473 1476 1477 1479 1481 1483 1485 1488 1491 1494 1496 1498 1501 1503 1506 1508 1511 1513 1515 1516 1518 1519 1520 1521 1523 1523 1524 1525 1525 1526 1527 1527 1528 1529 1529 1530